Location: Betzi
(47.2343°N, 9.5260°E)
Time: 15:53:44
(UTC+00:00)

Cosmos 304 Rocket - Pass Details

Date: 27 May 2022
Orbit: 679 x 686 km, 74.0° (Epoch: 06 July)

Event Time Altitude Azimuth Distance (km) Brightness Sun altitude
Exits shadow 00:15:46 46° 174° (S) 923 4.0 -20.3°
Maximum altitude 00:17:05 69° 109° (ESE) 737 3.8 -20.3°
Drops below altitude 10° 00:21:53 10° 27° (NNE) 2,144 7.5 -20.1°
Sets 00:24:13 0° 25° (NNE) 3,065 8.7 -19.9°
